Location: Ajisawe
(8.4333°N, 4.3833°E)
Time: 21:53:34
(UTC+00:00)

Vanguard 2 Rocket - Pass Details

Date: 24 April 2021
Orbit: 554 x 3326 km, 32.9° (Epoch: 16 May)

Event Time Altitude Azimuth Distance (km) Brightness Sun altitude
Rises 17:23:51 0° 307° (NW) 7,309 12.9 5.9°
Reaches altitude 10° 17:29:13 10° 312° (NW) 6,249 12.4 4.6°
Maximum altitude 17:48:03 53° 25° (NNE) 3,086 9.6 0.1°
Drops below altitude 10° 18:00:19 10° 99° (E) 4,264 9.6 -2.8°
Enters shadow 18:02:09 - 102° (ESE) 4,689 9.8 -3.3°
Sets 18:03:11 0° 104° (ESE) 4,940 - -3.5°
